[[{"header":{"parameterUnit":"m.s-1","parameterCategory":1,"la1":30.2991,"la2":30.254,"lo1":-89.0895,"lo2":-89.0444,"dy":0.0017,"dx":0.0017,"nx":28,"ny":28,"refTime":"2024-11-29T09:00:00:Z","depth":0,"parameterNumber":2,"parameterNumberName":"U-component_of_WINDS"},"data":[0,0,0,0,0,0,0,0,0,0,0,0,0,0,0,0,0,0,0,0,0,0,0,0,0,0,0,0,0,0,0,0,0,0,0,0,0,0,0,0,0,0,0,0,0,0,0,0,0,0,0,0,0,0,0,0,0,0,-1.5042,-1.5041,0,-1.4974,-1.4973,-1.4972,-1.4873,-1.4871,-1.487,-1.4868,-1.48,-1.4799,-1.4799,0,0,0,0,0,0,0,0,0,0,0,0,0,-1.5086,-1.5086,-1.5042,-1.5041,-1.504,-1.4974,-1.4973,-1.4972,-1.4873,-1.4871,-1.4869,-1.4867,-1.48,-1.4799,-1.4799,0,0,0,0,0,0,0,0,0,0,0,0,0,-1.5048,-1.5086,-1.5042,-1.4983,-1.4977,-1.4974,-1.4973,-1.4972,-1.4874,-1.4871,-1.4869,-1.4866,-1.48,-1.4799,-1.4799,-1.4849,0,0,-1.4798,-1.4798,0,0,0,0,0,0,0,0,-1.505,-1.5046,-1.4992,-1.4987,-1.498,-1.4929,-1.4963,-1.4931,-1.4875,-1.4913,-1.4868,-1.4865,-1.4845,-1.4841,-1.4834,-1.4846,-1.4843,-1.4798,-1.4798,-1.4798,-1.4798,0,0,0,0,0,0,0,-1.5053,-1.5048,-1.5015,-1.4992,-1.4984,-1.496,-1.4951,-1.4957,-1.4894,-1.4909,-1.4902,-1.4895,-1.4841,-1.4834,-1.4831,-1.4842,-1.4798,-1.4798,-1.4798,-1.4797,-1.489,-1.4892,0,0,0,0,0,0,-1.5064,-1.5051,-1.5017,-1.5013,-1.5009,-1.4961,-1.4952,-1.4948,-1.4894,-1.4883,-1.4898,-1.4891,-1.4836,-1.4832,-1.4829,-1.4883,-1.4798,-1.4797,-1.4797,-1.4887,-1.489,-1.4893,0,0,0,0,0,0,-1.5065,-1.5062,-1.502,-1.503,-1.5023,-1.4963,-1.496,-1.4948,-1.4941,-1.4885,-1.4873,-1.4902,-1.4834,-1.4829,-1.4844,-1.4879,-1.4797,-1.4797,-1.4884,-1.4888,-1.4892,-1.4992,0,0,0,0,0,0,-1.5067,-1.5063,-1.5082,-1.5031,-1.5023,-1.5037,-1.4962,-1.4949,-1.4941,-1.4932,-1.4886,-1.4876,-1.4831,-1.4845,-1.4844,-1.4877,-1.4797,-1.4881,-1.4886,-1.4891,-1.4986,-1.4999,-1.5011,0,0,0,0,0,-1.5069,-1.5113,-1.5083,-1.5079,-1.5044,-1.5039,-1.5034,-1.4982,-1.4944,-1.4962,-1.4926,-1.4878,-1.4875,-1.4848,-1.4845,-1.4879,-1.4878,-1.4885,-1.489,-1.498,-1.4997,-1.5011,0,0,0,0,0,0,-1.517,-1.5105,-1.5071,-1.51,-1.5076,-1.5023,-1.5044,-1.5001,-1.4987,-1.4979,-1.4914,-1.4905,-1.4928,-1.4905,-1.4875,-1.4924,-1.4869,-1.4875,-1.4939,-1.4954,-1.4966,-1.4972,-1.4796,0,0,0,0,0,-1.5195,-1.5196,-1.514,-1.5171,-1.516,-1.5104,-1.51,-1.5061,-1.5034,-1.5023,-1.4988,-1.4963,-1.4956,-1.4953,-1.4944,-1.4981,-1.497,-1.5003,-1.5016,-1.5026,-1.5033,-1.505,-1.5064,-1.4913,-1.4913,-1.4913,0,0,-1.5248,-1.5213,-1.5218,-1.519,-1.5167,-1.5169,-1.5096,-1.5102,-1.5104,-1.5024,-1.5036,-1.5009,-1.4977,-1.5004,-1.5013,-1.4985,-1.5071,-1.5034,-1.5043,-1.5043,-1.5057,-1.5072,-1.5085,-1.4917,-1.4916,-1.4916,0,0,-1.5346,-1.532,-1.5342,-1.532,-1.5285,-1.5247,-1.5253,-1.5205,-1.5184,-1.5195,-1.5135,-1.5136,-1.5126,-1.5105,-1.5094,-1.5182,-1.5137,-1.5181,-1.5247,-1.5265,-1.5277,-1.5287,-1.5318,-1.5331,-1.5187,-1.5187,-1.5187,0,-1.5417,-1.5418,-1.5359,-1.5369,-1.5358,-1.5285,-1.5308,-1.5289,-1.5253,-1.5248,-1.5216,-1.5201,-1.5174,-1.5194,-1.5216,-1.5209,-1.5213,-1.5186,-1.5279,-1.5289,-1.5298,-1.5327,-1.5339,-1.5192,-1.5192,-1.5191,-1.5191,0,-1.5506,-1.5508,-1.553,-1.5497,-1.5489,-1.5505,-1.5449,-1.5447,-1.5409,-1.5374,-1.5386,-1.5351,-1.5333,-1.5335,-1.5298,-1.535,-1.5333,-1.5291,-1.5236,-1.5319,-1.5345,-1.5356,-1.52,-1.5198,-1.5197,-1.5195,0,0,-1.5667,-1.56,-1.561,-1.5593,-1.5548,-1.5549,-1.5561,-1.5543,-1.5543,-1.552,-1.5529,-1.5522,-1.5482,-1.5469,-1.5429,-1.5444,-1.5516,-1.54,-1.5398,-1.5423,-1.5571,-1.5603,-1.5617,-1.5485,-1.5487,-1.5489,-1.5573,0,-1.5757,-1.5774,-1.5721,-1.5752,-1.5753,-1.5682,-1.5693,-1.5667,-1.5635,-1.563,-1.5594,-1.559,-1.5539,-1.553,-1.5542,-1.5505,-1.5545,-1.5498,-1.5493,-1.5494,-1.5504,-1.5631,-1.5665,-1.5747,-1.5583,-1.5585,-1.5586,0,-1.5864,-1.5846,-1.5877,-1.583,-1.5828,-1.5839,-1.5818,-1.5814,-1.5783,-1.5758,-1.5743,-1.5695,-1.5703,-1.5649,-1.566,-1.5629,-1.5623,-1.5605,-1.5606,-1.5605,-1.5546,-1.5633,-1.5772,-1.5785,-1.5602,-1.5601,-1.56,0,-1.5979,-1.5963,-1.5979,-1.5967,-1.5912,-1.5921,-1.5899,-1.5864,-1.5857,-1.5838,-1.5832,-1.5815,-1.5806,-1.5793,-1.5742,-1.5707,-1.5758,-1.57,-1.5738,-1.574,-1.5753,-1.5754,-1.5894,-1.5749,-1.5749,-1.5748,-1.5748,0,-1.6085,-1.6107,-1.603,-1.604,-1.6062,-1.6,-1.6024,-1.5994,-1.5964,-1.5967,-1.5905,-1.5909,-1.5841,-1.5837,-1.5797,-1.5812,-1.5808,-1.5788,-1.5777,-1.5794,-1.5797,-1.5791,-1.5784,-1.5752,-1.5751,-1.575,-1.575,0,-1.6218,-1.6167,-1.618,-1.6127,-1.6114,-1.6132,-1.6086,-1.6093,-1.6056,-1.6061,-1.6058,-1.6001,-1.5993,-1.594,-1.5921,-1.5894,-1.5923,-1.5901,-1.5934,-1.5927,-1.5969,-1.5966,-1.6111,-1.6127,-1.5971,-1.5973,-1.5974,0,-1.629,-1.6305,-1.6253,-1.625,-1.623,-1.6227,-1.6218,-1.6158,-1.6151,-1.6116,-1.6127,-1.6114,-1.6101,-1.6092,-1.6048,-1.6032,-1.601,-1.6061,-1.6007,-1.6023,-1.6011,-1.6011,-1.6012,-1.6074,-1.6076,-1.6077,-1.6079,0,-1.6423,-1.6396,-1.6387,-1.6368,-1.6359,-1.6341,-1.632,-1.6321,-1.6254,-1.625,-1.6241,-1.6231,-1.621,-1.6198,-1.6175,-1.6151,-1.6104,-1.6096,-1.6104,-1.6122,-1.6141,-1.6131,-1.5967,-1.6093,-1.6092,-1.6091,-1.609,-1.6089,-1.6527,-1.6537,-1.6502,-1.6493,-1.647,-1.6451,-1.6455,-1.6418,-1.6409,-1.6388,-1.6352,-1.6348,-1.6315,-1.6278,-1.6258,-1.6254,-1.6227,-1.6239,-1.6242,-1.6246,-1.6255,-1.614,-1.625,-1.6249,-1.6249,-1.6248,-1.6248,0,-1.6657,-1.6631,-1.6623,-1.6594,-1.6587,-1.6542,-1.6515,-1.6512,-1.651,-1.6482,-1.647,-1.6459,-1.6447,-1.6402,-1.6384,-1.639,-1.6368,-1.6387,-1.6387,-1.6382,-1.628,-1.6275,-1.6406,-1.6406,-1.6406,-1.6405,-1.6405,-1.6405,-1.6724,-1.6739,-1.6708,-1.671,-1.6682,-1.6678,-1.6667,-1.6649,-1.6626,-1.6618,-1.6607,-1.6577,-1.6542,-1.6521,-1.6508,-1.6495,-1.6492,-1.6519,-1.6499,-1.6405,-1.6389,-1.6375,-1.637,-1.6518,-1.6519,-1.6601,-1.6602,-1.6602]},{"header":{"parameterUnit":"m.s-1","parameterCategory":1,"la1":30.2991,"la2":30.254,"lo1":-89.0895,"lo2":-89.0444,"dy":0.0017,"dx":0.0017,"nx":28,"ny":28,"refTime":"2024-11-29T09:00:00:Z","depth":0,"parameterNumber":3,"parameterNumberName":"V-component_of_WINDS"},"data":[0,0,0,0,0,0,0,0,0,0,0,0,0,0,0,0,0,0,0,0,0,0,0,0,0,0,0,0,0,0,0,0,0,0,0,0,0,0,0,0,0,0,0,0,0,0,0,0,0,0,0,0,0,0,0,0,0,0,-6.8349,-6.835,0,-6.8409,-6.841,-6.8411,-6.8293,-6.8289,-6.8286,-6.8282,-6.8339,-6.8344,-6.8349,0,0,0,0,0,0,0,0,0,0,0,0,0,-6.8131,-6.8135,-6.8349,-6.835,-6.8351,-6.8409,-6.841,-6.8411,-6.8294,-6.8289,-6.8285,-6.828,-6.8338,-6.8344,-6.835,0,0,0,0,0,0,0,0,0,0,0,0,0,-6.8212,-6.8137,-6.8349,-6.83,-6.8296,-6.8409,-6.841,-6.8411,-6.8295,-6.8289,-6.8283,-6.8278,-6.8336,-6.8343,-6.8351,-6.8514,0,0,-6.8374,-6.8377,0,0,0,0,0,0,0,0,-6.8207,-6.822,-6.8306,-6.8303,-6.8299,-6.8338,-6.8354,-6.8445,-6.8296,-6.8295,-6.8282,-6.8275,-6.8343,-6.835,-6.8374,-6.8516,-6.8519,-6.8375,-6.8379,-6.8383,-6.8385,0,0,0,0,0,0,0,-6.8202,-6.8216,-6.8373,-6.8308,-6.8303,-6.8273,-6.8278,-6.8371,-6.8351,-6.8295,-6.8286,-6.8295,-6.834,-6.8367,-6.8374,-6.852,-6.8375,-6.8381,-6.8386,-6.8389,-6.88,-6.8806,0,0,0,0,0,0,-6.8203,-6.8213,-6.8371,-6.8375,-6.8238,-6.8282,-6.8288,-6.8331,-6.8349,-6.8347,-6.83,-6.829,-6.8356,-6.8365,-6.8376,-6.8569,-6.8383,-6.839,-6.8394,-6.8794,-6.8802,-6.8809,0,0,0,0,0,0,-6.8198,-6.8218,-6.8368,-6.8291,-6.8308,-6.8292,-6.8342,-6.8335,-6.8362,-6.8354,-6.8349,-6.8331,-6.8352,-6.8365,-6.8481,-6.857,-6.8393,-6.84,-6.8787,-6.8797,-6.8805,-6.8957,0,0,0,0,0,0,-6.8193,-6.8217,-6.828,-6.8294,-6.8313,-6.8474,-6.8347,-6.8341,-6.8376,-6.8363,-6.8381,-6.8379,-6.8349,-6.847,-6.8489,-6.8577,-6.8406,-6.8779,-6.8791,-6.8802,-6.8944,-6.8971,-6.8993,0,0,0,0,0,-6.8185,-6.8319,-6.8283,-6.8303,-6.8391,-6.8479,-6.849,-6.8454,-6.8383,-6.8446,-6.8441,-6.8378,-6.8557,-6.8483,-6.8503,-6.8595,-6.8773,-6.8788,-6.8801,-6.8933,-6.8966,-6.8993,0,0,0,0,0,0,-6.8313,-6.832,-6.828,-6.8423,-6.8452,-6.8459,-6.8537,-6.8489,-6.8537,-6.8523,-6.8474,-6.8479,-6.8605,-6.8611,-6.8529,-6.8754,-6.8653,-6.8672,-6.8746,-6.8777,-6.8801,-6.8798,-6.8413,0,0,0,0,0,-6.8359,-6.8431,-6.8432,-6.8557,-6.8574,-6.8554,-6.8591,-6.856,-6.8588,-6.8599,-6.8602,-6.863,-6.8693,-6.8735,-6.8791,-6.8944,-6.8947,-6.9017,-6.9042,-6.9062,-6.9079,-6.9162,-6.9194,-6.8855,-6.8855,-6.8855,0,0,-6.8452,-6.8464,-6.8513,-6.8583,-6.8602,-6.8678,-6.8564,-6.8649,-6.8705,-6.8611,-6.8722,-6.8726,-6.8753,-6.8889,-6.8949,-6.8898,-6.9173,-6.908,-6.9096,-6.9103,-6.918,-6.9212,-6.9241,-6.8865,-6.8863,-6.8862,0,0,-6.8661,-6.8678,-6.8785,-6.8807,-6.8838,-6.8823,-6.8849,-6.8865,-6.8864,-6.8975,-6.8907,-6.8972,-6.908,-6.9103,-6.913,-6.935,-6.9295,-6.9369,-6.9498,-6.958,-6.9606,-6.963,-6.971,-6.9739,-6.9386,-6.9387,-6.9387,0,-6.8773,-6.8886,-6.8845,-6.8936,-6.897,-6.889,-6.8999,-6.9021,-6.9068,-6.9093,-6.9035,-6.9171,-6.9184,-6.9325,-6.9379,-6.9402,-6.9431,-6.9368,-6.9606,-6.9629,-6.965,-6.9726,-6.9756,-6.9396,-6.9395,-6.9394,-6.9393,0,-6.9023,-6.9102,-6.9185,-6.9236,-6.9278,-6.9377,-6.9351,-6.9398,-6.9364,-6.9356,-6.947,-6.9483,-6.9543,-6.9573,-6.954,-6.971,-6.9678,-6.9614,-6.9511,-6.9692,-6.9763,-6.9792,-6.9409,-6.9405,-6.9403,-6.94,0,0,-6.9315,-6.9343,-6.9374,-6.9397,-6.9426,-6.9486,-6.9581,-6.964,-6.9683,-6.9718,-6.9797,-6.9892,-6.9833,-6.9863,-6.9832,-6.9903,-7.0079,-6.983,-6.983,-6.9878,-7.0269,-7.0319,-7.0353,-7.0042,-7.0047,-7.0052,-7.0268,0,-6.9524,-6.969,-6.9657,-6.9819,-6.9893,-6.9819,-6.9902,-6.9929,-6.9924,-6.9984,-6.9977,-7.0046,-6.9963,-6.9981,-7.0048,-7.0044,-7.0157,-7.0027,-7.0115,-7.0119,-7.0113,-7.039,-7.0442,-7.0645,-7.0295,-7.0299,-7.0303,0,-6.979,-6.9839,-7.0009,-7.0028,-7.0058,-7.0133,-7.0186,-7.0245,-7.0274,-7.0265,-7.03,-7.0255,-7.0349,-7.0245,-7.0374,-7.0287,-7.032,-7.0324,-7.0331,-7.0339,-7.0223,-7.0407,-7.0708,-7.074,-7.0345,-7.0342,-7.0339,0,-6.9989,-7.0096,-7.0212,-7.0234,-7.0258,-7.0314,-7.0326,-7.0349,-7.0387,-7.0433,-7.0457,-7.0513,-7.0543,-7.0587,-7.0558,-7.0485,-7.0694,-7.0586,-7.0689,-7.069,-7.0738,-7.0735,-7.1051,-7.0757,-7.0757,-7.0756,-7.0755,0,-7.0227,-7.0335,-7.0302,-7.0374,-7.0493,-7.0453,-7.0571,-7.0574,-7.0596,-7.0667,-7.0605,-7.0672,-7.063,-7.0694,-7.0671,-7.0783,-7.0797,-7.0792,-7.0786,-7.0799,-7.08,-7.0822,-7.0808,-7.0764,-7.0762,-7.0761,-7.0759,0,-7.047,-7.0452,-7.0574,-7.0588,-7.0594,-7.0682,-7.0693,-7.0759,-7.075,-7.084,-7.0859,-7.0844,-7.0917,-7.0892,-7.0969,-7.0954,-7.1097,-7.107,-7.1088,-7.1082,-7.1188,-7.1179,-7.153,-7.1575,-7.125,-7.1253,-7.1256,0,-7.0624,-7.0705,-7.0729,-7.0773,-7.0791,-7.0862,-7.0902,-7.0866,-7.091,-7.0949,-7.1012,-7.1079,-7.1131,-7.1249,-7.1245,-7.1303,-7.1279,-7.1398,-7.1287,-7.1299,-7.1283,-7.128,-7.1288,-7.1421,-7.1424,-7.1427,-7.143,0,-7.09,-7.0888,-7.0948,-7.1007,-7.1057,-7.1101,-7.1139,-7.1178,-7.1144,-7.1196,-7.1271,-7.1311,-7.1391,-7.1459,-7.1512,-7.1523,-7.1472,-7.1465,-7.1492,-7.1508,-7.1516,-7.1515,-7.1151,-7.1457,-7.1454,-7.1452,-7.1451,-7.145,-7.1104,-7.1174,-7.1203,-7.1273,-7.1298,-7.1336,-7.14,-7.1399,-7.1461,-7.1525,-7.1499,-7.1585,-7.1612,-7.1678,-7.1697,-7.1764,-7.1718,-7.1757,-7.1767,-7.1778,-7.1792,-7.1504,-7.1773,-7.1772,-7.1771,-7.177,-7.177,0,-7.1379,-7.1395,-7.1459,-7.1516,-7.1571,-7.1519,-7.1559,-7.1608,-7.1685,-7.1715,-7.1769,-7.1855,-7.1921,-7.1922,-7.1983,-7.2036,-7.2014,-7.2053,-7.205,-7.2054,-7.1829,-7.18,-7.207,-7.207,-7.207,-7.207,-7.207,-7.207,-7.1529,-7.1646,-7.1637,-7.1766,-7.1779,-7.1865,-7.1892,-7.1926,-7.195,-7.205,-7.2105,-7.2106,-7.2125,-7.2187,-7.2245,-7.2243,-7.227,-7.2319,-7.2309,-7.2099,-7.2069,-7.2041,-7.2014,-7.2324,-7.2325,-7.2528,-7.253,-7.2532]}]]